User: anonymous   Login
Location: Chuathbaluk
(61.5726°N, 159.2454°W)
Time: 03:37:07
(UTC+00:00)
Language:

A-11 Canister half - Orbit

View from above orbital plane
View from above orbital plane
View from above satellite
View from above satellite

Ground track
Ground track

The orbit data is extracted from the following two-line orbital elements,

1 00053U 60009E   21138.87332729 -.00000090  00000-0 -46838-4 0  9993
2 00053  47.2767 304.6029 0097645 353.0447   6.8983 12.17254197709429
Epoch (UTC): 18 May 2021 20:57:35
Eccentricity: 0.0097645
inclination: 47.2767°
perigee height: 1526 km
apogee height: 1682 km
right ascension of ascending node: 304.6029°
argument of perigee: 353.0447°
revolutions per day: 12.17254197
mean anomaly at epoch: 6.8983°
orbit number at epoch: 70942

The dashed part of the orbit path shows where the satellite is in the earth's shadow,  

DLR